Location: C�an Torras
(41.5052°N, 1.9280°E)
Time: 18:20:22
(UTC+00:00)

Cosmos 489 Rocket - Pass Details

Date: 20 January 2021
Orbit: 952 x 983 km, 74.0° (Epoch: 02 March)

Event Time Altitude Azimuth Distance (km) Brightness Sun altitude
Rises 18:28:13 0° 341° (NNW) 3,698 7.6 -17.6°
Reaches altitude 10° 18:30:48 10° 344° (NNW) 2,746 6.9 -18.0°
Maximum altitude 18:37:10 73° 69° (ENE) 1,023 4.4 -19.2°
Drops below altitude 10° 18:43:28 10° 154° (SSE) 2,715 6.7 -20.4°
Sets 18:46:00 0° 156° (SSE) 3,655 7.4 -20.8°
